This is the latest recevied weather packets stored in our database for station/object GW3ATZ-10. If no packets are shown the sender has not sent any weather packets the latest 10 day(s).
| Time | Temp. | Humidity | Pressure | Rain* | Wind** | Luminosity | Snow |
|---|---|---|---|---|---|---|---|
| 1788354178 | 21.67° C | 54% | 1015 hPa | - | - | - | - |
| 1788353278 | 21.67° C | 54% | 1015.2 hPa | - | - | - | - |
| 1788352378 | 21.67° C | 54% | 1015.3 hPa | - | - | - | - |
| 1788351478 | 22.22° C | 53% | 1015.3 hPa | - | - | - | - |
| 1788350578 | 22.78° C | 53% | 1015.6 hPa | - | - | - | - |
| 1788349678 | 21.67° C | 53% | 1015.8 hPa | - | - | - | - |
| 1788348778 | 21.67° C | 53% | 1016.1 hPa | - | - | - | - |
| 1788347878 | 21.11° C | 53% | 1016.2 hPa | - | - | - | - |
| 1788346977 | 20.56° C | 52% | 1016.5 hPa | - | - | - | - |
| 1788346077 | 20.56° C | 52% | 1016.7 hPa | - | - | - | - |
| 1788345177 | 20.56° C | 53% | 1016.9 hPa | - | - | - | - |
| 1788344277 | 20.56° C | 52% | 1017.1 hPa | - | - | - | - |
| 1788343377 | 20.56° C | 52% | 1017.2 hPa | - | - | - | - |
| 1788342477 | 20.56° C | 52% | 1017.3 hPa | - | - | - | - |
| 1788341576 | 20.56° C | 52% | 1017.4 hPa | - | - | - | - |
| 1788340676 | 20.56° C | 52% | 1017.6 hPa | - | - | - | - |
| 1788339776 | 20.56° C | 52% | 1017.7 hPa | - | - | - | - |
| 1788338876 | 20.56° C | 52% | 1017.9 hPa | - | - | - | - |
| 1788337976 | 20.56° C | 52% | 1018 hPa | - | - | - | - |
| 1788337076 | 20.56° C | 52% | 1018 hPa | - | - | - | - |
| 1788336176 | 20.56° C | 52% | 1018.3 hPa | - | - | - | - |
| 1788335276 | 20.56° C | 52% | 1018.3 hPa | - | - | - | - |
| 1788334376 | 20.56° C | 51% | 1018.3 hPa | - | - | - | - |
| 1788333476 | 20.56° C | 52% | 1018.3 hPa | - | - | - | - |
| 1788332574 | 20.56° C | 52% | 1018.3 hPa | - | - | - | - |
* Rain since midnight (hover to see other rain measurements)
** Current wind speed in m/s (hover to see current wind gust speed)